Visibility
15.0 15.0 15.0 15.0 15.0 15.0 15.0 15.0 15.0 15.0 15.0 15.0 15.0 15.0 15.0 15.0 15.0 15.0 15.0 15.0 15.0 15.0 15.0 15.0 15.0 15.0 15.0 15.0 15.0 15.0 15.0 15.0 15.0 15.0 15.0 15.0 15.0 15.0 15.0 15.0 15.0 15.0 15.0
15.0 15.0 15.0 15.0 15.0 15.0 15.0 15.0 15.0 15.0 15.0 15.0 15.0 15.0 15.0 15.0 15.0 15.0 15.0 15.0 15.0 15.0 15.0 15.0 15.0 15.0 15.0 15.0 15.0 15.0 15.0 15.0 15.0 15.0 15.0 15.0 15.0 15.0 15.0 15.0 15.0 15.0 15.0
15.0 15.0 15.0 15.0 15.0 15.0 15.0 15.0 15.0 15.0 15.0 15.0 15.0 15.0 15.0 15.0 15.0 15.0 15.0 15.0 15.0 15.0 15.0 15.0 15.0 15.0 15.0 15.0 15.0 15.0 15.0 15.0 15.0 15.0 15.0 15.0 15.0 15.0 15.0 15.0 15.0 15.0 15.0
15.0 15.0 15.0 15.0 15.0 15.0 15.0 15.0 15.0 15.0 15.0 15.0 15.0 15.0 15.0 15.0 15.0 15.0 15.0 15.0 15.0 15.0 15.0 15.0 15.0 15.0 15.0 15.0 15.0 15.0 15.0 15.0 15.0 15.0 15.0 15.0 15.0 15.0 15.0 15.0 15.0 15.0 15.0
15.0 15.0 15.0 15.0 15.0 15.0 15.0 15.0 15.0 15.0 15.0 15.0 15.0 15.0 15.0 15.0 15.0 15.0 15.0 15.0 15.0 15.0 15.0 15.0 15.0 15.0 15.0 15.0 15.0 15.0 15.0 14.0 15.0 7.7 13.4 15.0 15.0 15.0 15.0 15.0 15.0 15.0 15.0
15.0 15.0 15.0 15.0 15.0 15.0 15.0 15.0 15.0 15.0 15.0 15.0 15.0 15.0 15.0 15.0 15.0 15.0 15.0 15.0 15.0 15.0 15.0 15.0 15.0 15.0 15.0 15.0 15.0 15.0 15.0 13.8 4.0 2.1 3.7 15.0 15.0 15.0 15.0 15.0 15.0 15.0 11.6
15.0 15.0 15.0 15.0 15.0 15.0 15.0 15.0 15.0 15.0 15.0 15.0 15.0 15.0 15.0 15.0 15.0 15.0 15.0 15.0 15.0 15.0 15.0 15.0 15.0 15.0 15.0 15.0 15.0 15.0 15.0 15.0 15.0 15.0 15.0 15.0 15.0 15.0 15.0 14.2 13.1 10.9 0.9
15.0 15.0 15.0 15.0 15.0 15.0 15.0 15.0 15.0 15.0 15.0 15.0 15.0 15.0 15.0 15.0 15.0 15.0 15.0 15.0 15.0 15.0 15.0 15.0 15.0 15.0 15.0 15.0 15.0 15.0 15.0 15.0 15.0 15.0 15.0 15.0 8.0 11.7 15.0 7.5 1.9 15.0 15.0
15.0 15.0 15.0 15.0 15.0 15.0 15.0 15.0 15.0 15.0 15.0 15.0 15.0 15.0 15.0 9.6 6.9 15.0 15.0 15.0 15.0 15.0 15.0 15.0 15.0 15.0 15.0 15.0 15.0 15.0 15.0 15.0 15.0 15.0 15.0 14.7 15.0 15.0 15.0 15.0 15.0 11.6 8.4
15.0 15.0 15.0 15.0 15.0 15.0 15.0 15.0 15.0 15.0 15.0 15.0 15.0 15.0 10.7 15.0 2.7 10.2 15.0 15.0 15.0 15.0 15.0 15.0 15.0 15.0 15.0 15.0 15.0 15.0 15.0 15.0 15.0 15.0 14.2 15.0 15.0 15.0 15.0 15.0 15.0 8.7 7.2
15.0 15.0 15.0 15.0 15.0 15.0 15.0 15.0 15.0 15.0 15.0 15.0 15.0 15.0 15.0 15.0 6.6 15.0 15.0 15.0 15.0 15.0 15.0 15.0 15.0 15.0 15.0 15.0 15.0 15.0 3.0 15.0 12.6 14.1 15.0 15.0 15.0 15.0 15.0 15.0 15.0 15.0 15.0
1.3 14.7 15.0 15.0 15.0 15.0 15.0 15.0 15.0 15.0 15.0 15.0 15.0 15.0 15.0 15.0 10.3 15.0 15.0 15.0 15.0 14.5 15.0 15.0 15.0 15.0 15.0 15.0 15.0 15.0 15.0 15.0 15.0 15.0 15.0 15.0 15.0 15.0 15.0 15.0 15.0 15.0 15.0
1.3 3.3 15.0 15.0 15.0 15.0 15.0 15.0 15.0 15.0 15.0 15.0 15.0 15.0 15.0 15.0 15.0 8.5 14.5 5.5 15.0 14.8 15.0 15.0 15.0 15.0 15.0 15.0 15.0 15.0 15.0 15.0 15.0 9.1 15.0 15.0 15.0 15.0 15.0 15.0 15.0 15.0 15.0
3.4 1.6 4.2 4.4 2.7 2.7 2.5 1.1 1.1 4.2 4.2 15.0 15.0 15.0 15.0 13.6 0.9 1.9 11.9 12.4 15.0 13.3 15.0 13.5 15.0 15.0 15.0 15.0 15.0 15.0 15.0 15.0 15.0 15.0 15.0 15.0 15.0 15.0 15.0 15.0 15.0 15.0 14.7
1.6 2.4 0.9 5.6 3.8 2.9 0.8 0.4 0.1 0.3 0.6 0.6 1.2 1.4 1.8 1.5 7.9 1.9 0.8 1.3 6.0 3.1 1.0 1.2 8.3 15.0 15.0 15.0 15.0 15.0 15.0 15.0 15.0 15.0 15.0 15.0 15.0 15.0 15.0 15.0 15.0 15.0 2.8
12.9 12.8 0.3 1.1 3.5 4.2 1.3 0.5 0.3 0.2 0.1 0.1 0.1 0.1 0.6 7.6 3.5 1.1 0.6 0.5 0.5 2.3 3.8 1.5 14.2 15.0 15.0 15.0 15.0 15.0 15.0 15.0 15.0 15.0 15.0 15.0 14.8 15.0 15.0 15.0 15.0 15.0 12.6
15.0 12.2 2.6 0.1 0.4 0.6 0.5 1.4 0.4 0.5 0.3 0.2 0.2 0.2 0.5 6.5 3.8 2.1 1.4 2.5 4.3 0.7 1.4 2.8 15.0 15.0 15.0 15.0 15.0 15.0 15.0 15.0 15.0 15.0 15.0 15.0 11.9 10.1 14.4 15.0 15.0 15.0 5.8
4.7 6.3 1.1 0.4 0.4 1.1 1.4 0.3 0.3 0.1 0.1 0.2 0.2 0.1 0.2 0.2 0.3 0.4 1.4 2.7 0.1 0.1 0.3 1.5 2.5 6.2 7.3 15.0 15.0 15.0 15.0 15.0 15.0 15.0 15.0 13.5 7.0 4.1 2.8 4.7 14.8 7.5 5.0
1.5 0.8 2.5 0.6 0.1 1.7 0.9 0.3 0.1 0.2 0.4 0.5 0.1 0.1 0.1 0.2 0.2 0.7 1.4 0.4 1.1 0.3 0.5 1.7 2.3 3.0 12.4 13.8 15.0 15.0 15.0 15.0 15.0 7.2 15.0 10.2 5.6 2.7 1.7 10.6 11.2 2.8 14.9
0.8 1.4 3.6 0.5 0.1 0.3 0.2 0.2 0.2 0.3 0.5 0.7 0.6 0.2 0.7 0.1 0.1 0.1 0.1 3.0 0.1 0.1 0.6 2.9 4.1 15.0 7.4 15.0 15.0 15.0 15.0 15.0 15.0 15.0 15.0 7.6 6.0 2.2 1.5 8.0 1.3 1.5 3.4
2.2 1.4 1.1 0.1 0.1 0.5 0.2 0.1 0.2 0.4 0.4 0.3 0.9 1.4 3.7 0.2 0.1 0.2 4.5 0.8 0.1 1.1 4.1 7.5 15.0 11.5 15.0 15.0 15.0 10.0 15.0 15.0 15.0 15.0 15.0 5.4 3.7 1.8 7.7 2.8 0.5 6.4 15.0
0.5 0.4 0.1 0.1 0.1 0.1 0.2 0.2 0.2 0.1 0.1 0.2 0.1 0.1 0.1 0.1 0.3 1.6 1.1 0.1 0.3 12.2 15.0 15.0 15.0 15.0 15.0 15.0 15.0 15.0 15.0 15.0 15.0 15.0 15.0 1.9 2.5 3.0 3.0 0.5 2.2 15.0 15.0
0.1 0.1 0.1 0.1 0.1 0.1 0.1 0.1 0.1 0.2 0.1 0.1 2.2 0.1 0.1 0.2 0.1 0.1 0.1 0.7 5.3 12.4 15.0 15.0 15.0 15.0 15.0 15.0 15.0 15.0 15.0 15.0 15.0 15.0 4.8 0.9 2.1 1.7 0.6 0.6 3.3 15.0 15.0
0.1 0.1 0.1 0.1 0.1 0.1 0.1 0.1 0.1 0.1 0.2 0.1 0.1 0.1 0.5 0.1 0.1 0.1 0.7 4.0 14.0 15.0 15.0 15.0 15.0 15.0 15.0 15.0 15.0 15.0 15.0 15.0 15.0 15.0 1.1 0.6 1.1 0.5 0.8 1.4 12.9 15.0 15.0
0.1 0.1 0.1 0.1 0.1 0.2 0.1 0.1 0.1 0.1 0.1 0.1 0.1 0.1 0.1 0.1 0.1 1.8 13.4 14.7 6.7 13.6 15.0 15.0 15.0 15.0 15.0 15.0 15.0 15.0 15.0 15.0 15.0 14.7 0.8 0.6 0.2 3.9 0.9 1.3 15.0 15.0 15.0
0.3 0.2 0.1 0.1 0.1 0.1 0.1 0.1 0.1 0.1 0.2 0.1 0.1 0.1 0.1 0.1 1.1 6.2 4.9 11.0 15.0 15.0 15.0 15.0 15.0 15.0 15.0 15.0 15.0 12.1 15.0 13.0 2.5 1.7 0.2 0.2 1.4 15.0 1.4 1.6 15.0 15.0 15.0